Wind_Speed
16 19 20 21 23 24 25 25 24 25 26 27 27 30 31 31 33 34 35 36 37 38 38 39 38 37 38 38 38 38 38 38 38 37 37 37 37 37 37 38 39 40 39 39
16 18 19 20 21 23 24 25 24 23 24 26 26 28 30 30 31 32 34 35 36 36 37 38 38 37 38 38 40 40 39 39 39 38 39 39 40 40 40 40 40 41 41 41
16 16 18 20 20 21 22 23 24 23 23 25 26 28 29 28 28 30 33 34 35 35 35 37 38 38 37 39 40 41 41 40 40 41 41 41 42 42 42 42 42 42 43 43
16 16 16 18 20 20 21 22 23 23 23 24 26 28 29 28 28 29 30 32 33 34 35 36 38 39 39 39 41 41 42 42 42 42 42 42 42 43 43 43 44 44 44 44
15 15 16 17 17 19 20 21 22 23 23 24 24 28 29 30 29 30 31 32 32 34 35 37 38 39 39 40 41 41 41 42 43 44 45 44 43 43 44 45 44 44 45 45
14 14 15 15 15 17 19 19 20 21 23 24 24 26 27 28 29 30 31 31 32 33 35 37 38 39 40 41 42 42 42 43 44 45 46 46 45 45 44 45 45 46 46 46
13 14 14 14 14 16 18 19 19 21 22 22 23 25 26 28 28 29 31 31 32 34 35 36 38 40 40 41 42 43 44 44 44 45 46 46 46 45 45 44 45 46 47 46
12 13 14 15 15 16 17 19 20 21 22 22 23 24 25 26 28 29 30 31 32 34 35 36 39 40 40 41 43 44 45 45 45 46 47 47 47 45 44 45 46 46 45 46
12 12 13 14 15 16 18 18 20 21 22 23 23 23 24 24 27 29 30 30 31 33 34 35 37 39 40 42 43 44 46 46 46 47 47 47 46 45 44 45 46 45 45 46
11 12 12 14 15 16 17 18 19 20 21 22 22 22 23 24 25 27 29 30 31 32 33 35 37 39 41 42 43 44 45 46 46 46 46 45 45 44 44 43 43 44 44 45
12 12 12 13 14 16 16 17 18 19 21 23 24 22 22 23 24 25 27 29 31 32 33 35 37 38 39 41 42 43 44 45 45 45 46 45 45 44 44 44 43 44 44 44
11 11 12 13 14 15 16 17 17 19 20 22 24 22 22 23 24 25 26 27 29 31 33 35 37 37 38 39 40 41 43 44 44 45 46 45 44 44 44 44 44 44 45 45
11 12 12 13 15 15 16 17 19 20 20 21 22 22 23 24 24 26 27 28 29 31 32 34 35 36 37 38 39 39 40 42 44 44 45 46 45 45 46 46 45 46 45 44
13 13 14 14 15 16 16 17 19 20 21 22 22 23 23 25 26 27 28 29 30 31 32 32 33 34 35 36 37 38 39 40 42 44 45 46 47 46 46 46 46 46 46 46
15 15 15 15 15 16 17 18 19 21 23 24 24 24 25 26 27 27 28 29 30 31 31 32 32 33 34 35 36 37 38 40 41 42 43 44 45 45 45 45 45 46 46 46
17 17 17 16 17 17 17 18 20 21 23 25 25 25 26 27 27 28 28 29 30 31 30 31 32 33 34 35 36 36 37 38 39 41 41 42 43 43 43 43 44 45 45 44
18 19 19 18 18 19 18 18 20 21 23 24 25 25 26 28 28 28 29 29 30 30 30 30 31 32 33 33 34 36 36 38 39 39 40 40 41 42 43 43 42 42 43 44
18 19 20 20 20 20 20 21 22 23 24 24 25 25 26 27 27 28 29 29 29 29 28 29 30 31 32 33 33 34 35 36 37 37 36 38 39 40 41 42 42 42 42 43
18 19 20 21 21 21 22 22 23 24 24 25 26 26 26 26 26 27 28 28 29 28 27 28 28 30 30 30 31 32 33 35 35 35 35 36 37 37 38 39 40 40 40 41
19 19 20 21 22 22 23 23 24 25 25 25 27 27 26 25 25 25 26 27 28 28 27 27 27 28 28 28 29 30 31 32 33 33 34 34 34 34 35 36 37 37 38 39
20 20 21 21 22 22 23 23 25 25 26 27 28 28 28 27 27 27 27 28 28 28 28 27 27 28 28 28 27 27 29 31 32 32 32 32 32 33 34 34 35 35 36 37
21 22 21 22 22 22 22 23 24 25 26 27 28 29 29 28 28 28 28 29 29 29 29 28 28 27 27 28 28 27 27 28 29 30 31 32 32 32 32 34 35 35 35 35
22 22 22 23 22 23 23 24 25 26 27 28 28 28 28 28 28 28 28 29 29 29 29 28 28 27 27 27 27 27 26 26 28 29 30 31 32 32 32 33 34 35 35 35
22 23 23 23 23 24 26 27 27 27 27 27 27 27 27 27 27 27 28 28 28 29 29 29 29 29 28 28 27 26 26 27 27 28 30 31 31 32 32 32 32 33 34 34
24 24 24 24 24 25 27 28 28 28 28 27 27 27 27 27 27 27 27 28 28 28 28 29 29 29 29 29 29 28 27 27 28 28 29 30 31 31 31 31 31 32 32 33
25 26 26 26 26 27 26 27 28 28 28 28 27 28 28 28 28 28 28 28 29 28 28 28 28 29 29 29 29 28 28 27 27 26 26 27 28 30 31 30 31 31 32 32
Wind_Direction
248 245 244 242 241 239 240 242 241 240 239 239 239 237 237 239 238 240 241 241 239 240 241 242 243 245 246 247 247 248 249 249 250 250 251 252 253 253 253 253 253 254 255 256
249 247 245 242 241 241 241 241 242 240 240 242 242 241 240 241 240 241 242 243 242 241 242 242 243 246 247 247 247 249 250 250 251 250 251 252 252 253 254 254 255 255 255 255
250 245 245 241 240 240 241 243 242 242 242 242 243 242 239 239 237 240 242 243 243 243 243 244 245 247 248 249 249 249 250 251 251 252 252 252 253 254 255 256 256 256 256 256
251 245 246 244 243 243 242 243 243 243 244 246 247 245 239 238 238 241 243 244 245 245 246 248 248 248 249 250 250 249 251 252 252 253 252 252 253 255 256 257 257 257 257 256
253 246 246 245 245 243 241 241 244 246 250 254 251 248 243 240 238 240 244 246 248 249 250 252 253 253 252 252 251 251 252 253 253 253 253 253 254 256 257 257 257 257 257 257
257 251 249 247 244 244 242 245 248 251 255 255 252 250 245 242 240 243 246 248 249 252 254 254 255 256 256 254 253 253 254 254 254 254 254 254 256 258 258 257 256 257 258 258
259 255 249 244 244 244 245 247 250 255 257 258 257 254 253 249 247 248 249 251 251 253 255 256 255 256 258 257 256 256 257 256 256 256 256 256 257 259 258 258 257 258 258 257
262 253 251 248 248 247 247 249 254 260 262 262 261 258 260 254 252 252 253 255 255 256 258 260 258 257 259 258 258 257 257 257 257 257 257 257 257 257 257 258 258 258 258 258
268 260 254 253 253 253 251 254 260 264 266 268 265 264 264 257 256 254 255 258 259 260 262 264 263 261 259 259 259 259 257 258 257 257 257 256 255 255 256 257 257 256 257 257
271 267 261 258 258 257 256 261 264 268 270 272 270 271 269 264 262 258 259 262 264 266 267 268 268 265 263 262 260 260 258 257 257 256 255 254 252 253 254 255 255 255 256 256
274 276 270 265 262 264 264 265 267 272 275 275 277 276 274 272 268 266 267 267 269 270 271 272 271 270 267 264 262 261 259 257 255 255 254 252 251 252 252 254 254 254 254 255
276 276 274 270 269 269 267 269 272 276 279 279 279 279 278 277 274 271 270 271 272 273 274 275 274 271 268 265 262 261 258 256 255 254 253 251 251 253 252 253 253 254 253 253
278 279 280 276 273 271 270 271 274 278 280 280 281 280 278 277 274 273 273 274 275 276 277 277 275 272 269 267 264 261 259 255 254 254 253 252 253 254 254 253 253 253 254 255
280 283 282 281 281 279 274 275 278 279 282 282 283 283 278 277 277 278 277 277 278 278 279 279 277 273 270 267 263 261 259 256 255 254 253 255 254 254 254 252 253 253 254 255
280 283 284 281 282 283 278 276 278 280 282 283 285 284 282 279 279 280 281 281 280 280 280 279 276 273 270 267 265 262 260 257 255 254 255 255 254 253 253 253 252 253 254 255
281 282 283 281 282 284 283 282 282 283 284 285 286 285 282 281 280 280 280 281 281 281 281 280 278 275 273 270 268 265 261 258 257 256 256 256 254 252 252 252 252 252 253 255
280 281 280 280 280 283 284 287 288 289 289 288 287 288 286 284 281 280 279 281 282 283 284 282 278 276 273 271 270 267 263 260 258 258 257 255 253 252 252 252 253 253 255 257
282 282 280 279 280 280 286 288 289 290 292 291 291 291 290 289 286 284 283 283 284 286 285 283 281 277 274 272 270 267 265 264 260 258 257 255 253 251 253 254 255 256 257 257
286 285 282 279 280 283 286 289 291 291 291 291 293 293 293 292 290 289 288 288 288 287 286 285 284 280 277 274 272 270 269 264 260 257 256 256 253 251 252 253 255 257 257 257
287 287 286 284 283 286 288 289 290 291 291 291 291 291 292 291 291 291 291 290 289 288 287 285 283 280 278 275 273 272 269 263 260 259 257 254 252 252 252 253 254 256 258 258
285 286 286 286 286 289 292 293 292 292 293 292 291 291 291 290 290 290 290 291 290 288 287 286 282 280 279 278 279 273 269 265 263 259 256 254 255 254 254 254 254 255 257 258
285 285 285 287 289 293 295 297 296 296 295 293 291 291 290 289 288 288 289 290 290 288 287 285 283 280 279 279 281 278 272 267 262 259 257 256 256 256 254 254 255 254 256 257
285 285 284 286 289 291 294 296 297 297 296 295 294 293 294 293 291 289 289 290 290 290 288 284 282 280 280 281 280 277 272 267 263 261 260 258 257 259 259 257 256 256 257 257
284 284 284 286 288 290 293 294 295 296 296 296 295 294 294 295 293 291 290 291 291 290 288 285 282 282 281 280 280 278 271 267 265 264 262 259 257 258 257 256 258 257 257 258
283 283 283 286 289 290 293 294 294 294 294 294 295 296 295 294 292 290 290 291 291 290 289 285 282 282 281 279 278 277 274 268 266 265 263 261 259 257 258 258 258 257 257 259
283 283 283 285 288 290 292 293 295 295 294 293 293 294 294 293 292 291 291 292 292 292 290 288 285 283 282 280 277 275 273 272 270 267 264 262 261 260 259 260 259 259 260 260
Height
5696 5698 5698 5700 5701 5703 5705 5707 5709 5710 5711 5713 5716 5719 5722 5724 5726 5729 5732 5735 5739 5742 5745 5748 5751 5753 5756 5759 5761 5764 5767 5769 5771 5773 5775 5777 5779 5782 5783 5785 5787 5789 5790 5792
5694 5694 5695 5695 5697 5698 5700 5702 5704 5705 5706 5708 5710 5713 5714 5716 5719 5722 5724 5727 5730 5733 5736 5739 5742 5745 5747 5749 5752 5755 5757 5759 5761 5763 5765 5767 5770 5772 5774 5776 5777 5779 5780 5782
5689 5690 5690 5691 5692 5693 5695 5697 5699 5700 5702 5702 5704 5706 5707 5709 5711 5714 5716 5719 5721 5724 5727 5730 5732 5735 5737 5740 5742 5745 5747 5749 5751 5752 5754 5757 5759 5762 5764 5765 5767 5768 5770 5772
5685 5686 5686 5687 5688 5690 5691 5692 5694 5695 5696 5696 5698 5699 5701 5703 5705 5707 5709 5711 5713 5716 5718 5720 5722 5725 5727 5730 5732 5734 5736 5738 5740 5742 5744 5746 5749 5751 5753 5755 5756 5757 5758 5760
5681 5682 5682 5683 5685 5686 5687 5688 5690 5690 5690 5691 5692 5692 5695 5696 5698 5700 5702 5703 5705 5707 5709 5711 5713 5714 5717 5719 5721 5723 5725 5727 5729 5731 5733 5735 5737 5740 5742 5743 5744 5746 5747 5749
5679 5679 5679 5680 5681 5682 5683 5684 5685 5685 5685 5685 5685 5685 5687 5689 5691 5693 5694 5696 5697 5699 5700 5701 5703 5704 5705 5707 5709 5712 5714 5716 5717 5719 5721 5723 5725 5728 5730 5731 5732 5734 5736 5737
5676 5676 5676 5677 5678 5678 5679 5680 5680 5679 5678 5678 5679 5679 5681 5682 5684 5685 5687 5688 5689 5690 5691 5692 5693 5694 5695 5696 5698 5700 5702 5704 5705 5707 5709 5711 5713 5715 5717 5719 5721 5722 5724 5725
5672 5673 5673 5673 5674 5674 5675 5676 5676 5675 5674 5674 5673 5673 5676 5676 5676 5677 5678 5679 5680 5681 5682 5682 5683 5683 5684 5685 5686 5688 5689 5691 5693 5695 5697 5699 5701 5703 5705 5707 5709 5710 5712 5714
5669 5669 5670 5670 5670 5671 5670 5671 5671 5670 5668 5668 5668 5669 5669 5669 5669 5670 5670 5671 5671 5672 5673 5672 5672 5672 5673 5674 5674 5676 5677 5679 5681 5683 5684 5686 5688 5691 5693 5695 5697 5698 5701 5703
5666 5667 5667 5666 5667 5667 5667 5667 5666 5665 5663 5662 5663 5663 5663 5663 5662 5663 5663 5663 5663 5663 5663 5662 5662 5661 5661 5661 5662 5663 5665 5666 5668 5670 5672 5675 5677 5679 5682 5684 5686 5687 5690 5691
5663 5664 5664 5663 5663 5663 5663 5663 5661 5660 5659 5658 5657 5660 5658 5656 5656 5656 5656 5656 5655 5654 5653 5652 5651 5650 5649 5649 5650 5651 5652 5654 5656 5658 5661 5664 5666 5668 5670 5673 5675 5677 5678 5680
5660 5660 5660 5660 5660 5659 5659 5658 5657 5657 5655 5653 5652 5656 5652 5650 5649 5649 5649 5648 5646 5645 5644 5642 5640 5639 5638 5638 5638 5639 5641 5642 5644 5647 5650 5652 5655 5657 5659 5661 5663 5665 5667 5669
5657 5657 5657 5656 5657 5656 5654 5654 5652 5651 5650 5648 5647 5650 5646 5644 5643 5642 5641 5640 5638 5637 5635 5632 5630 5628 5628 5628 5628 5629 5629 5631 5633 5635 5638 5641 5643 5645 5647 5649 5651 5654 5655 5657
5654 5653 5654 5653 5651 5650 5650 5649 5648 5646 5645 5643 5642 5642 5641 5638 5637 5635 5634 5632 5630 5628 5626 5624 5622 5620 5619 5618 5618 5619 5619 5620 5621 5624 5626 5628 5630 5632 5634 5637 5640 5642 5644 5645
5649 5649 5648 5648 5647 5645 5645 5644 5642 5641 5639 5637 5636 5634 5633 5631 5629 5627 5625 5623 5622 5620 5618 5615 5614 5612 5610 5609 5609 5609 5610 5610 5611 5613 5615 5616 5618 5620 5622 5625 5628 5630 5632 5634
5644 5644 5643 5643 5642 5641 5640 5639 5637 5635 5633 5631 5628 5628 5625 5623 5621 5619 5617 5615 5613 5611 5609 5607 5605 5602 5601 5600 5599 5599 5600 5600 5600 5601 5603 5605 5607 5609 5611 5614 5616 5618 5620 5622
5640 5639 5638 5638 5637 5635 5635 5634 5632 5629 5627 5625 5622 5621 5618 5616 5613 5611 5609 5607 5604 5602 5600 5598 5596 5594 5592 5590 5589 5589 5590 5590 5590 5591 5593 5594 5596 5598 5600 5602 5604 5606 5609 5611
5635 5633 5632 5632 5632 5630 5632 5628 5626 5623 5621 5618 5615 5612 5610 5608 5605 5603 5600 5599 5596 5594 5591 5589 5587 5585 5583 5582 5581 5580 5580 5580 5581 5581 5583 5584 5586 5588 5590 5592 5594 5596 5598 5600
5629 5628 5626 5626 5624 5624 5624 5622 5619 5616 5614 5612 5608 5606 5603 5601 5598 5596 5593 5591 5588 5586 5583 5581 5579 5576 5575 5573 5572 5572 5572 5571 5572 5572 5573 5575 5576 5578 5580 5583 5584 5586 5588 5589
5623 5622 5621 5619 5618 5617 5618 5615 5611 5610 5608 5605 5602 5599 5596 5593 5592 5590 5586 5583 5581 5578 5576 5573 5571 5569 5567 5566 5565 5564 5563 5563 5563 5564 5565 5566 5567 5569 5571 5573 5575 5576 5578 5579
5617 5616 5614 5612 5610 5610 5610 5607 5605 5604 5602 5597 5594 5591 5588 5586 5584 5582 5579 5576 5573 5571 5568 5566 5564 5562 5560 5559 5558 5557 5556 5555 5555 5555 5556 5557 5559 5560 5562 5563 5565 5566 5568 5568
5611 5609 5608 5606 5604 5606 5602 5600 5598 5596 5592 5589 5585 5583 5580 5578 5575 5573 5570 5568 5565 5563 5560 5558 5556 5554 5552 5551 5550 5548 5547 5547 5547 5547 5548 5549 5550 5551 5552 5554 5555 5556 5557 5559
5604 5604 5601 5601 5601 5598 5595 5592 5590 5587 5584 5581 5578 5575 5572 5570 5567 5565 5562 5560 5557 5555 5552 5550 5548 5546 5545 5543 5542 5540 5539 5539 5539 5539 5539 5540 5541 5542 5543 5545 5546 5547 5548 5549
5598 5596 5594 5593 5592 5590 5587 5584 5582 5579 5576 5573 5570 5567 5565 5562 5559 5557 5555 5552 5549 5547 5544 5542 5540 5538 5536 5535 5533 5532 5531 5531 5530 5530 5531 5531 5532 5533 5534 5535 5536 5537 5538 5539
5590 5588 5586 5585 5584 5581 5579 5576 5573 5570 5567 5565 5562 5560 5557 5554 5552 5549 5547 5544 5541 5539 5536 5533 5531 5529 5528 5526 5525 5524 5523 5523 5522 5522 5522 5522 5523 5524 5525 5526 5527 5528 5529 5530
5583 5581 5579 5578 5576 5573 5571 5568 5565 5562 5559 5557 5554 5552 5549 5546 5544 5541 5539 5536 5533 5530 5528 5525 5523 5521 5519 5518 5517 5516 5515 5514 5514 5513 5513 5514 5514 5515 5517 5517 5518 5518 5519 5520